{"data":{"norad_id":66978,"intl_designator":"2025-288V","name":"STARLINK-35787","alt_names":[],"object_type":"PAYLOAD","status":"ACTIVE","operator":null,"country":"US","launch_date":"2025-12-08","launch_site_code":"AFETR","launch_vehicle":null,"mission":null,"orbit_class":"UNKNOWN","rcs_meters":null,"size_class":null,"mass_kg":null,"dimensions":null,"purposes":["comms"],"wikipedia_slug":null,"has_3d_model":false,"image_url":null,"decayed_at":null,"tle_current":{"epoch":"2026-05-25T03:30:09.698112Z","epoch_age_seconds":62213,"freshness":"FRESH","line1":"1 66978U 25288V   26145.14594558  .00018269  00000+0  67179-3 0  9998","line2":"2 66978  43.0033 311.3905 0001149 257.8235 102.2488 15.27577989 26980","mean_motion":15.27577989,"eccentricity":0.0001149,"inclination_deg":43.0033,"raan_deg":311.3905,"arg_perigee_deg":257.8235,"mean_anomaly_deg":102.2488,"bstar":0.00067179,"rev_number":2698,"period_min":94.266872812345,"perigee_km":482.26676672939,"apogee_km":483.84346867804,"semimajor_km":6861.1921177037,"source":"CELESTRAK","updated_at":"2026-05-25T13:38:21.426128Z"}}}